Probability
0 0 0 0 0 0 0 0 0 0 0 0 0 0 0 0 0 0 0 0 0 0 0 0 0 0 0 0 0 0 0 0 0 0 0 0 0 0
0 0 0 0 0 0 0 0 0 0 0 0 0 0 0 0 0 0 0 0 0 0 0 0 0 0 0 0 0 0 0 0 0 0 0 0 0 0
0 0 0 0 0 0 0 0 0 0 0 0 0 0 0 0 0 0 0 0 0 0 0 0 0 0 0 0 0 0 0 0 0 0 0 0 0 0
0 0 0 1 1 1 1 0 0 0 1 1 0 0 0 0 0 0 0 0 0 0 0 0 0 0 0 0 0 0 0 0 0 0 0 0 0 0
0 0 1 2 2 2 2 2 1 1 1 1 0 0 0 0 0 0 0 0 0 0 0 0 0 0 0 0 0 0 0 0 0 0 0 0 0 0
0 0 1 2 2 3 3 3 2 2 1 1 0 0 0 0 0 0 0 0 0 0 0 0 0 0 0 0 0 0 0 0 0 0 0 0 0 0
0 0 0 1 1 1 2 2 2 2 2 2 1 0 0 0 0 0 0 0 0 0 0 0 0 0 0 0 0 0 0 0 0 0 0 0 0 0
0 0 0 0 0 0 1 1 1 2 2 2 1 0 0 0 0 0 0 0 0 0 0 0 0 0 0 0 0 0 0 0 0 0 0 0 0 0
0 0 0 0 0 0 0 0 0 1 1 1 0 0 0 0 0 0 0 0 0 0 0 0 0 0 0 0 0 0 0 0 0 0 0 0 0 0
0 0 0 0 0 0 0 0 0 0 0 0 0 0 0 0 0 0 0 0 0 0 0 0 0 0 0 0 0 0 0 0 0 0 0 0 0 0
0 0 0 0 0 0 0 0 0 0 0 0 0 0 0 0 0 0 0 0 0 0 0 0 0 0 0 0 0 0 0 0 0 0 0 0 0 0
0 0 0 0 0 0 0 0 0 0 0 0 0 0 0 0 0 0 0 0 0 0 0 0 0 0 0 0 0 0 0 0 0 0 0 0 0 0
0 0 0 0 0 0 0 0 0 0 0 0 0 0 0 0 0 0 0 0 0 0 0 0 0 0 0 0 0 0 0 0 0 0 0 0 0 0
0 0 0 0 0 0 0 0 0 0 0 0 0 0 0 0 0 0 0 0 0 0 0 0 0 0 0 0 0 0 0 0 0 0 0 0 0 0
0 0 0 0 0 0 0 0 0 0 0 0 0 0 0 0 0 0 0 0 0 0 0 0 0 0 0 0 0 0 0 0 0 0 0 0 0 0
0 0 0 0 0 0 0 0 0 0 0 0 0 0 0 0 0 0 0 0 0 0 0 0 0 0 0 0 0 0 0 0 0 0 0 0 0 0
0 0 0 0 0 0 0 0 0 0 0 0 0 0 0 0 0 0 0 0 0 0 0 0 0 0 0 0 0 0 0 0 0 0 0 0 0 0
0 0 0 0 0 0 0 0 0 0 0 0 0 0 0 0 0 0 0 0 0 0 0 0 0 0 0 0 0 0 0 0 0 0 0 0 0 0
0 0 0 0 0 0 0 0 0 0 0 0 0 0 0 0 0 0 0 0 0 0 0 0 0 0 0 0 0 0 0 0 0 0 0 0 0 0
0 0 0 0 0 0 0 0 0 0 0 0 0 0 0 0 0 0 0 0 0 0 0 0 0 0 0 0 0 0 0 0 0 0 0 0 0 0
0 0 0 0 0 0 0 0 0 0 0 0 0 0 0 0 0 0 0 0 0 0 0 0 0 0 0 0 0 0 0 0 0 0 0 0 0 0
0 0 0 0 0 0 0 0 0 0 0 0 0 0 0 0 0 0 0 0 0 0 0 0 0 0 0 0 0 0 0 0 0 0 0 0 0 0
0 0 0 0 0 0 0 0 0 0 0 0 0 0 0 0 0 0 0 0 0 0 0 0 0 0 0 0 0 0 0 0 0 0 0 0 0 0
Wind_Speed
6 7 7 6 5 5 6 6 7 10 9 5 4 4 4 4 7 6 6 10 12 14 15 15 15 16 17 17 19 19 19 19 18 18 18 18 17 17
5 6 6 5 5 5 5 5 6 8 10 5 4 4 5 5 7 6 7 11 12 12 13 13 14 15 16 16 17 18 18 18 17 17 17 17 17 17
4 5 6 5 5 4 4 5 5 6 10 8 5 5 6 6 5 5 6 6 6 11 12 13 13 14 14 15 15 16 16 17 17 17 17 17 17 17
4 4 5 4 5 4 4 5 5 5 7 11 7 5 6 6 6 6 5 5 6 9 11 12 13 13 14 14 15 14 14 15 15 15 16 17 17 17
3 4 5 4 5 4 4 5 5 5 6 7 8 5 5 4 6 6 6 5 6 7 10 11 12 13 14 14 14 14 13 14 14 14 15 15 16 16
3 3 4 3 4 5 4 5 5 5 6 6 7 6 5 4 4 5 7 5 6 6 8 9 10 12 13 13 13 13 13 14 14 14 14 14 14 14
3 3 3 3 3 4 4 4 5 5 5 6 7 6 6 4 5 4 7 7 7 4 5 5 5 6 7 10 11 12 13 13 13 13 12 12 13 13
3 3 3 3 3 5 6 6 6 6 7 6 6 7 8 6 5 5 6 7 7 3 4 7 4 7 6 6 10 13 13 12 12 12 12 12 12 12
3 3 4 4 4 4 6 6 6 6 7 7 8 8 8 7 7 7 7 7 9 6 5 8 5 7 6 7 12 12 11 11 11 10 11 11 10 10
3 4 4 4 5 5 6 6 6 5 6 5 6 7 7 7 7 8 8 8 8 6 4 7 6 6 6 6 9 10 11 11 11 10 10 10 9 9
4 4 4 4 6 8 6 6 7 6 6 7 9 10 12 12 9 6 6 6 8 6 2 4 5 6 6 5 5 8 10 10 10 9 9 9 8 8
3 3 4 6 8 9 6 6 8 8 7 7 7 8 8 8 8 6 5 6 7 7 3 3 4 4 6 4 3 3 4 7 8 9 9 9 8 5
3 3 3 7 9 10 9 6 8 9 7 7 7 6 5 5 4 4 4 5 7 8 4 3 5 4 5 7 6 4 3 3 4 5 6 8 8 6
3 3 4 9 10 11 8 8 10 8 5 5 5 5 5 5 5 5 5 5 6 9 7 5 5 5 6 8 8 5 3 3 3 4 3 5 7 8
4 6 8 9 9 7 7 9 7 4 4 5 5 6 5 6 6 5 5 5 6 6 6 5 5 5 5 7 7 6 6 5 3 3 3 3 3 3
4 4 7 8 7 7 6 5 3 3 4 5 5 6 5 5 5 5 6 6 6 5 4 4 4 5 5 6 6 7 6 5 4 4 4 3 3 3
4 3 3 3 3 3 4 4 4 3 3 4 5 5 6 6 6 5 5 5 5 7 7 4 3 3 4 6 6 6 6 5 4 4 3 4 4 3
3 2 3 3 4 4 4 5 4 4 4 4 5 5 6 6 7 6 5 5 6 7 6 6 5 5 4 3 4 6 5 5 4 4 3 4 5 3
2 2 3 3 4 4 4 4 5 5 4 4 5 5 5 6 6 6 6 6 6 6 6 5 5 5 7 8 6 3 4 5 4 4 3 4 5 5
2 2 3 3 4 4 4 4 5 4 4 4 5 5 5 5 6 6 6 6 7 7 6 5 5 5 6 7 7 7 6 4 4 4 4 4 4 5
2 3 3 4 4 4 4 4 4 4 5 4 5 5 5 5 6 6 6 7 7 6 7 7 6 7 5 4 5 6 5 5 5 4 4 3 4 3
3 3 3 4 4 4 4 4 4 4 5 4 5 5 5 5 6 7 6 6 6 6 7 7 6 5 4 5 6 7 7 7 5 6 6 5 4 4
3 3 4 4 4 4 4 4 5 5 4 5 5 5 5 5 5 6 6 6 6 7 7 7 6 5 5 4 5 6 7 7 5 5 5 6 7 8
Wind_Direction
241 242 246 249 247 248 249 250 266 282 283 268 267 267 269 266 268 263 262 265 265 267 266 264 265 266 266 267 268 266 266 265 266 264 262 262 261 260
241 245 249 252 251 249 249 251 250 265 276 274 271 280 280 278 277 271 267 270 267 269 269 268 269 268 268 270 271 270 266 264 264 263 260 259 259 259
249 250 255 258 261 263 261 260 261 262 275 282 277 286 285 283 288 280 275 272 276 270 269 270 271 270 270 270 270 270 268 265 264 263 261 259 258 257
264 263 267 269 265 267 267 267 267 265 272 284 290 291 287 291 293 291 289 284 279 277 273 273 272 271 273 274 272 270 269 265 263 262 261 259 258 256
270 271 277 279 277 280 279 277 276 279 273 279 285 285 285 297 304 298 296 292 288 285 282 279 277 275 273 273 273 271 269 267 263 261 259 257 256 256
272 272 275 274 278 285 285 286 290 289 285 282 284 288 286 293 301 300 305 300 293 291 282 283 283 280 277 276 275 272 269 269 267 264 261 258 256 255
291 290 293 297 302 299 296 298 300 292 291 289 288 293 293 304 299 297 295 300 292 277 290 286 286 281 277 275 274 272 271 270 267 264 262 260 257 254
299 304 305 295 307 308 301 295 291 290 290 288 288 289 293 297 300 301 301 306 296 291 292 287 273 273 272 270 274 272 269 268 268 266 261 258 256 253
310 316 322 332 331 325 318 311 302 292 282 283 286 287 294 302 306 301 295 287 282 290 296 285 273 272 274 272 272 268 267 268 268 268 266 261 256 250
336 327 324 327 339 340 329 320 310 306 299 290 285 290 298 304 300 294 292 290 282 280 262 277 286 284 287 274 268 265 269 270 270 270 269 265 260 256
347 346 338 328 334 338 328 314 308 305 315 305 298 296 298 299 299 297 295 296 294 290 262 268 289 299 290 277 272 266 266 268 268 268 268 268 264 260
342 342 339 335 333 334 325 312 304 307 312 310 304 301 298 298 296 282 283 287 290 291 281 280 291 313 302 285 282 283 276 271 269 268 267 267 263 258
320 323 326 332 328 327 325 311 306 312 308 306 306 306 305 301 298 287 274 272 278 278 284 297 290 290 280 295 299 285 274 284 284 275 266 266 263 253
312 315 318 323 322 321 324 324 324 322 309 305 304 306 310 311 310 305 293 278 269 273 279 278 279 284 287 288 291 301 301 284 279 281 280 272 265 258
316 315 320 322 323 323 324 327 327 319 311 308 307 309 310 308 309 308 304 299 290 281 281 273 271 280 276 276 284 291 303 299 269 270 277 273 269 260
328 320 321 322 323 323 324 329 326 317 309 305 306 309 312 312 310 312 312 315 309 305 303 297 284 278 283 281 275 281 284 282 290 285 281 278 272 257
326 326 326 329 330 329 327 323 322 321 319 317 314 314 316 316 315 319 314 316 309 311 319 324 322 313 292 284 283 279 280 282 281 286 290 289 283 264
346 329 321 319 319 323 324 322 324 327 326 322 317 313 313 313 314 316 315 312 308 309 312 317 324 325 317 296 275 277 283 283 288 287 283 279 283 277
356 315 308 310 312 313 313 314 318 324 326 320 314 312 311 310 311 313 316 313 308 307 310 314 315 313 309 305 305 303 291 292 296 293 285 280 278 280
334 308 304 303 305 308 310 313 315 319 319 314 311 308 306 306 309 310 312 311 308 309 311 313 310 304 295 292 295 303 304 287 283 285 292 297 291 283
302 299 301 302 301 301 301 303 304 304 306 307 304 301 301 303 304 306 306 307 306 308 308 308 306 307 303 303 296 298 305 302 289 283 285 292 294 287
291 291 293 296 296 294 295 298 300 300 303 301 298 298 299 299 300 302 303 303 302 301 301 303 308 310 305 294 290 296 304 314 321 317 300 281 265 258
290 291 290 291 293 293 290 293 295 295 296 296 297 297 297 298 298 296 297 295 297 300 304 305 310 312 309 297 293 298 304 311 317 323 318 318 298 281